Погода в Куркино

Россия / Тульская область     53°25′45″N   38°39′44″E
темп.,
°C
ветер,
м/с
пор.,
м/с
влажн.,
%
обл.,
%
осадки,
мм/ч
давл.,
гПа
погр.,
м
29 июня, ср
ср2900:00+14всв38785 0.0 1021166
03:00+12всв35742 0.0 102181
06:00+13всв36780 0.0 1022168
09:00+17всв45600 0.0 1022540
12:00+19всв44504 0.0 10221506
15:00+20всв33495 0.0 10211609
18:00+20св225617 0.0 10201547
21:00+15в226999 0.0 102011
30 июня, чт
чт3000:00+13всв01690 0.0 102010
03:00+12ссз11740 0.0 102010
06:00+14сз23780 0.0 101982
09:00+18ссз34655 0.0 1019590
12:00+21с45525 0.0 10191540
15:00+21с56511 0.0 10171818
18:00+20с3663100 0.0 1017636
21:00+16сз35712 0.0 101758
1 июля, пт
пт100:00+13ссз36800 0.0 101788
03:00+12ссз37771 0.0 1018107
06:00+13ссз36800 0.0 1018153
09:00+18ссв68651 0.0 1018743
12:00+20ссв69520 0.0 10191754
15:00+19ссв68492 0.0 10191888
18:00+19ссв47560 0.0 10191450
21:00+14с33660 0.0 102030
2 июля, сб
сб200:00+11в11800 0.0 102111
03:00+11зсз11760 0.0 102110
06:00+12сз368045 0.0 1021150
09:00+18ссз466064 0.0 1020529
12:00+21с45495 0.0 10191278
15:00+23сз46479 0.0 10171488
18:00+22зсз376551 0.1 1016489
21:00+18зсз5129053 0.7 1015279
3 июля, вс
вс300:00+17сз410945 0.1 1015180
03:00+16ссз48940 0.1 1014130
06:00+17ссз48920 0.0 1015217
09:00+21ссв56720 0.0 1015574
12:00+23с57580 0.0 10151306
15:00+24с57545 0.0 10151630
18:00+24ссв3564100 0.0 1015637
21:00+19зсз117482 0.0 101511